User: anonymous   Login
Location: Unspecified
(0.0000°N, 0.0000°E)
Time: 19:27:13
(UTC+00:00)
Language:

GAZELLE - Orbit

View from above orbital plane
View from above orbital plane
View from above satellite
View from above satellite

Ground track
Ground track

The orbit data is extracted from the following two-line orbital elements,

1 54023U 22127A   24057.96453288  .00000274  00000-0  96625-4 0  9996
2 54023  98.3396  54.7561 0012837 202.4354 157.6276 14.42010144 73097
Epoch (UTC): 26 February 2024 23:08:55
Eccentricity: 0.0012837
inclination: 98.3396°
perigee height: 743 km
apogee height: 761 km
right ascension of ascending node: 54.7561°
argument of perigee: 202.4354°
revolutions per day: 14.42010144
mean anomaly at epoch: 157.6276°
orbit number at epoch: 7309

The dashed part of the orbit path shows where the satellite is in the earth's shadow,  

DLR